Time,TemperatureF,DewpointF,PressureIn,WindDirection,WindDirectionDegrees,WindSpeedMPH,WindSpeedGustMPH,Humidity,HourlyPrecipIn,Conditions,Clouds,dailyrainin,SoftwareType,DateUTC
2013-07-11 00:00:00,78.8,0.0,27.23,ESE,107,0.0,3.1,0,0.04,,---,0.00,VWS V13.01,2013-07-11 07:00:00,
2013-07-11 00:01:00,78.8,0.0,27.23,ESE,107,0.0,3.1,0,0.04,,---,0.00,VWS V13.01,2013-07-11 07:01:00,
2013-07-11 00:02:00,78.8,0.0,27.23,East,100,2.7,4.0,0,0.04,,---,0.00,VWS V13.01,2013-07-11 07:02:00,
2013-07-11 00:03:00,78.8,0.0,27.23,SSE,150,3.1,4.0,0,0.04,,---,0.00,VWS V13.01,2013-07-11 07:03:00,
2013-07-11 00:04:00,78.8,0.0,27.23,East,90,3.6,4.0,0,0.04,,---,0.00,VWS V13.01,2013-07-11 07:04:00,
2013-07-11 00:05:00,78.8,0.0,27.23,East,84,3.1,3.6,0,0.04,,---,0.00,VWS V13.01,2013-07-11 07:05:00,
2013-07-11 00:06:00,78.8,0.0,27.23,East,84,2.7,3.6,0,0.04,,---,0.00,VWS V13.01,2013-07-11 07:06:00,
2013-07-11 00:07:00,78.4,0.0,27.23,East,95,3.6,4.9,0,0.04,,---,0.00,VWS V13.01,2013-07-11 07:07:00,
2013-07-11 00:08:00,78.4,0.0,27.23,East,97,2.7,4.9,0,0.04,,---,0.00,VWS V13.01,2013-07-11 07:08:00,
2013-07-11 00:09:00,78.4,0.0,27.23,East,98,2.7,4.9,0,0.04,,---,0.00,VWS V13.01,2013-07-11 07:09:00,
2013-07-11 00:10:00,78.4,0.0,27.23,ESE,102,3.1,4.5,0,0.05,,---,0.01,VWS V13.01,2013-07-11 07:10:00,
2013-07-11 00:11:00,78.4,0.0,27.23,SE,128,2.7,4.5,0,0.05,,---,0.01,VWS V13.01,2013-07-11 07:11:00,
2013-07-11 00:12:00,78.4,0.0,27.23,ESE,114,3.6,5.4,0,0.05,,---,0.01,VWS V13.01,2013-07-11 07:12:00,
2013-07-11 00:13:00,78.3,0.0,27.23,ESE,102,0.0,5.4,0,0.05,,---,0.01,VWS V13.01,2013-07-11 07:13:00,
2013-07-11 00:14:00,78.3,0.0,27.23,SE,136,3.6,5.4,0,0.05,,---,0.01,VWS V13.01,2013-07-11 07:14:00,
2013-07-11 00:15:00,78.3,0.0,27.23,SE,137,3.6,5.4,0,0.05,,---,0.01,VWS V13.01,2013-07-11 07:15:00,
2013-07-11 00:16:00,78.3,0.0,27.23,South,173,0.0,5.4,0,0.05,,---,0.01,VWS V13.01,2013-07-11 07:16:00,
2013-07-11 00:17:00,78.3,0.0,27.23,South,177,0.0,3.6,0,0.05,,---,0.01,VWS V13.01,2013-07-11 07:17:00,
2013-07-11 00:18:00,78.3,0.0,27.23,South,184,0.0,3.6,0,0.05,,---,0.01,VWS V13.01,2013-07-11 07:18:00,
2013-07-11 00:19:00,78.3,0.0,27.23,South,184,0.0,0.0,0,0.05,,---,0.01,VWS V13.01,2013-07-11 07:19:00,
2013-07-11 00:20:00,78.3,0.0,27.20,South,184,0.0,0.0,0,0.04,,---,0.01,VWS V13.01,2013-07-11 07:20:00,
2013-07-11 00:21:00,78.3,0.0,27.20,South,184,0.0,0.0,0,0.04,,---,0.01,VWS V13.01,2013-07-11 07:21:00,
2013-07-11 00:22:00,78.3,0.0,27.20,South,184,0.0,0.0,0,0.04,,---,0.01,VWS V13.01,2013-07-11 07:22:00,
2013-07-11 00:23:00,78.3,0.0,27.20,South,184,0.0,0.0,0,0.05,,---,0.02,VWS V13.01,2013-07-11 07:23:00,
2013-07-11 00:24:00,78.3,0.0,27.20,South,184,0.0,0.0,0,0.05,,---,0.02,VWS V13.01,2013-07-11 07:24:00,
2013-07-11 00:25:00,78.3,0.0,27.20,South,184,0.0,0.0,0,0.05,,---,0.02,VWS V13.01,2013-07-11 07:25:00,
2013-07-11 00:26:00,78.3,0.0,27.20,South,184,0.0,0.0,0,0.05,,---,0.02,VWS V13.01,2013-07-11 07:26:00,
2013-07-11 00:27:00,78.3,0.0,27.20,South,184,0.0,0.0,0,0.05,,---,0.02,VWS V13.01,2013-07-11 07:27:00,
2013-07-11 00:28:00,78.3,0.0,27.20,South,184,0.0,0.0,0,0.05,,---,0.02,VWS V13.01,2013-07-11 07:28:00,
2013-07-11 00:29:00,78.3,0.0,27.20,South,184,0.0,0.0,0,0.05,,---,0.02,VWS V13.01,2013-07-11 07:29:00,
2013-07-11 00:30:00,78.3,0.0,27.20,South,184,0.0,0.0,0,0.05,,---,0.02,VWS V13.01,2013-07-11 07:30:00,
2013-07-11 00:31:00,78.3,0.0,27.20,South,184,0.0,0.0,0,0.05,,---,0.02,VWS V13.01,2013-07-11 07:31:00,
2013-07-11 00:32:00,78.3,0.0,27.20,South,184,0.0,0.0,0,0.05,,---,0.02,VWS V13.01,2013-07-11 07:32:00,
2013-07-11 00:33:00,78.3,0.0,27.20,South,184,0.0,0.0,0,0.06,,---,0.04,VWS V13.01,2013-07-11 07:33:00,
2013-07-11 00:34:00,78.3,0.0,27.20,South,184,0.0,0.0,0,0.06,,---,0.04,VWS V13.01,2013-07-11 07:34:00,
2013-07-11 00:35:00,78.3,0.0,27.20,South,184,0.0,0.0,0,0.06,,---,0.04,VWS V13.01,2013-07-11 07:35:00,
2013-07-11 00:36:00,78.3,0.0,27.20,South,184,0.0,0.0,0,0.06,,---,0.04,VWS V13.01,2013-07-11 07:36:00,
2013-07-11 00:37:00,78.3,0.0,27.20,South,184,0.0,0.0,0,0.05,,---,0.04,VWS V13.01,2013-07-11 07:37:00,
2013-07-11 00:38:00,78.3,0.0,27.20,South,184,0.0,0.0,0,0.05,,---,0.04,VWS V13.01,2013-07-11 07:38:00,
2013-07-11 00:39:00,78.3,0.0,27.20,South,184,0.0,0.0,0,0.05,,---,0.04,VWS V13.01,2013-07-11 07:39:00,
2013-07-11 00:40:00,77.2,0.0,27.20,South,184,0.0,0.0,0,0.05,,---,0.04,VWS V13.01,2013-07-11 07:40:00,
2013-07-11 00:41:00,77.2,0.0,27.20,South,184,0.0,0.0,0,0.05,,---,0.04,VWS V13.01,2013-07-11 07:41:00,
2013-07-11 00:42:00,77.2,0.0,27.20,ENE,76,0.0,0.0,0,0.05,,---,0.04,VWS V13.01,2013-07-11 07:42:00,
2013-07-11 00:43:00,77.2,0.0,27.20,ENE,75,0.0,0.0,0,0.05,,---,0.04,VWS V13.01,2013-07-11 07:43:00,
2013-07-11 00:44:00,77.2,0.0,27.20,ENE,75,0.0,0.0,0,0.05,,---,0.04,VWS V13.01,2013-07-11 07:44:00,
2013-07-11 00:45:00,77.2,0.0,27.20,ENE,75,0.0,0.0,0,0.05,,---,0.04,VWS V13.01,2013-07-11 07:45:00,
2013-07-11 00:46:00,77.2,0.0,27.20,ENE,75,0.0,0.0,0,0.05,,---,0.04,VWS V13.01,2013-07-11 07:46:00,
2013-07-11 00:47:00,77.2,0.0,27.20,ENE,75,0.0,0.0,0,0.05,,---,0.04,VWS V13.01,2013-07-11 07:47:00,
2013-07-11 00:48:00,77.2,0.0,27.20,ENE,75,0.0,0.0,0,0.05,,---,0.04,VWS V13.01,2013-07-11 07:48:00,
2013-07-11 00:49:00,77.2,0.0,27.20,ENE,75,0.0,0.0,0,0.05,,---,0.04,VWS V13.01,2013-07-11 07:49:00,
2013-07-11 00:50:00,77.2,0.0,27.20,ENE,75,0.0,0.0,0,0.05,,---,0.04,VWS V13.01,2013-07-11 07:50:00,
2013-07-11 00:51:00,77.2,0.0,27.20,ENE,76,3.1,3.6,0,0.06,,---,0.05,VWS V13.01,2013-07-11 07:51:00,
2013-07-11 00:52:00,77.2,0.0,27.20,ENE,76,2.7,3.6,0,0.06,,---,0.05,VWS V13.01,2013-07-11 07:52:00,
2013-07-11 00:53:00,77.2,0.0,27.20,ENE,76,0.0,3.6,0,0.06,,---,0.05,VWS V13.01,2013-07-11 07:53:00,
2013-07-11 00:54:00,77.2,0.0,27.20,ENE,76,0.0,2.7,0,0.06,,---,0.05,VWS V13.01,2013-07-11 07:54:00,
2013-07-11 00:55:00,77.2,0.0,27.20,ENE,76,0.0,2.7,0,0.06,,---,0.05,VWS V13.01,2013-07-11 07:55:00,
2013-07-11 00:56:00,77.2,0.0,27.20,ENE,76,0.0,0.0,0,0.05,,---,0.05,VWS V13.01,2013-07-11 07:56:00,
2013-07-11 00:57:00,77.2,0.0,27.20,ENE,78,0.0,0.0,0,0.05,,---,0.05,VWS V13.01,2013-07-11 07:57:00,
2013-07-11 00:58:00,77.2,0.0,27.20,East,97,3.1,3.1,0,0.05,,---,0.05,VWS V13.01,2013-07-11 07:58:00,
2013-07-11 00:59:00,77.2,0.0,27.20,ESE,109,0.0,4.0,0,0.06,,---,0.06,VWS V13.01,2013-07-11 07:59:00,
2013-07-11 01:00:00,77.2,0.0,27.20,ESE,109,0.0,4.0,0,0.06,,---,0.06,VWS V13.01,2013-07-11 08:00:00,
2013-07-11 01:01:00,77.2,0.0,27.20,ESE,109,0.0,3.1,0,0.06,,---,0.06,VWS V13.01,2013-07-11 08:01:00,
2013-07-11 01:02:00,77.2,0.0,27.20,ESE,109,0.0,0.0,0,0.06,,---,0.06,VWS V13.01,2013-07-11 08:02:00,
2013-07-11 01:03:00,77.2,0.0,27.20,ESE,109,0.0,0.0,0,0.06,,---,0.06,VWS V13.01,2013-07-11 08:03:00,
2013-07-11 01:04:00,77.2,0.0,27.20,ESE,109,0.0,0.0,0,0.06,,---,0.06,VWS V13.01,2013-07-11 08:04:00,
2013-07-11 01:05:00,77.2,0.0,27.20,ESE,109,0.0,0.0,0,0.06,,---,0.06,VWS V13.01,2013-07-11 08:05:00,
2013-07-11 01:06:00,77.2,0.0,27.20,ESE,109,0.0,0.0,0,0.06,,---,0.06,VWS V13.01,2013-07-11 08:06:00,
2013-07-11 01:07:00,77.2,0.0,27.20,East,100,2.7,2.7,0,0.06,,---,0.06,VWS V13.01,2013-07-11 08:07:00,
2013-07-11 01:08:00,77.2,0.0,27.20,SE,137,3.1,3.1,0,0.06,,---,0.06,VWS V13.01,2013-07-11 08:08:00,
2013-07-11 01:09:00,77.2,0.0,27.20,ESE,114,0.0,5.4,0,0.06,,---,0.06,VWS V13.01,2013-07-11 08:09:00,
2013-07-11 01:10:00,77.2,0.0,27.20,ESE,114,2.7,5.4,0,0.06,,---,0.06,VWS V13.01,2013-07-11 08:10:00,
2013-07-11 01:11:00,77.2,0.0,27.20,ESE,114,0.0,4.9,0,0.05,,---,0.06,VWS V13.01,2013-07-11 08:11:00,
2013-07-11 01:12:00,77.2,0.0,27.20,ESE,114,0.0,3.1,0,0.05,,---,0.06,VWS V13.01,2013-07-11 08:12:00,
2013-07-11 01:13:00,77.2,0.0,27.20,ESE,116,3.6,4.9,0,0.05,,---,0.06,VWS V13.01,2013-07-11 08:13:00,
2013-07-11 01:14:00,77.2,0.0,27.20,ESE,120,2.7,4.9,0,0.05,,---,0.06,VWS V13.01,2013-07-11 08:14:00,
2013-07-11 01:15:00,77.2,0.0,27.20,ESE,118,0.0,4.0,0,0.05,,---,0.06,VWS V13.01,2013-07-11 08:15:00,
2013-07-11 01:16:00,77.2,0.0,27.20,ESE,118,0.0,4.0,0,0.05,,---,0.06,VWS V13.01,2013-07-11 08:16:00,
2013-07-11 01:17:00,77.2,0.0,27.20,ESE,120,4.9,4.9,0,0.06,,---,0.07,VWS V13.01,2013-07-11 08:17:00,
2013-07-11 01:18:00,76.8,0.0,27.20,ESE,114,0.0,4.9,0,0.06,,---,0.07,VWS V13.01,2013-07-11 08:18:00,
2013-07-11 01:19:00,76.8,0.0,27.20,ESE,116,0.0,4.9,0,0.06,,---,0.07,VWS V13.01,2013-07-11 08:19:00,
2013-07-11 01:20:00,76.8,0.0,27.23,SE,134,2.7,3.6,0,0.06,,---,0.07,VWS V13.01,2013-07-11 08:20:00,
2013-07-11 01:21:00,76.8,0.0,27.23,SSE,165,2.2,4.0,0,0.06,,---,0.07,VWS V13.01,2013-07-11 08:21:00,
2013-07-11 01:22:00,76.8,0.0,27.23,South,184,0.0,4.0,0,0.06,,---,0.07,VWS V13.01,2013-07-11 08:22:00,
2013-07-11 01:23:00,76.6,0.0,27.23,SSE,153,3.6,4.9,0,0.06,,---,0.07,VWS V13.01,2013-07-11 08:23:00,
2013-07-11 01:24:00,76.6,0.0,27.23,SE,137,0.0,4.9,0,0.05,,---,0.07,VWS V13.01,2013-07-11 08:24:00,
2013-07-11 01:25:00,76.6,0.0,27.23,ESE,117,2.7,4.0,0,0.05,,---,0.07,VWS V13.01,2013-07-11 08:25:00,
2013-07-11 01:26:00,76.5,0.0,27.23,SSE,151,0.0,4.0,0,0.05,,---,0.07,VWS V13.01,2013-07-11 08:26:00,
2013-07-11 01:27:00,76.5,0.0,27.23,SSE,151,0.0,4.0,0,0.05,,---,0.07,VWS V13.01,2013-07-11 08:27:00,
2013-07-11 01:28:00,76.3,0.0,27.23,SE,134,5.4,5.4,0,0.05,,---,0.07,VWS V13.01,2013-07-11 08:28:00,
2013-07-11 01:29:00,76.3,0.0,27.23,SSW,192,8.3,8.3,0,0.05,,---,0.07,VWS V13.01,2013-07-11 08:29:00,
2013-07-11 01:30:00,76.1,0.0,27.23,SSE,166,6.3,8.7,0,0.05,,---,0.07,VWS V13.01,2013-07-11 08:30:00,
2013-07-11 01:31:00,75.9,0.0,27.23,SSE,154,5.4,8.7,0,0.05,,---,0.07,VWS V13.01,2013-07-11 08:31:00,
2013-07-11 01:32:00,75.9,0.0,27.23,SSE,158,3.1,8.7,0,0.05,,---,0.07,VWS V13.01,2013-07-11 08:32:00,
2013-07-11 01:33:00,75.7,0.0,27.23,SSE,153,3.6,5.8,0,0.05,,---,0.07,VWS V13.01,2013-07-11 08:33:00,
2013-07-11 01:34:00,75.7,0.0,27.23,South,180,5.4,7.6,0,0.04,,---,0.07,VWS V13.01,2013-07-11 08:34:00,
2013-07-11 01:35:00,75.6,0.0,27.23,South,186,6.3,7.6,0,0.04,,---,0.07,VWS V13.01,2013-07-11 08:35:00,
2013-07-11 01:36:00,75.6,0.0,27.23,SE,133,8.1,8.1,0,0.04,,---,0.07,VWS V13.01,2013-07-11 08:36:00,
2013-07-11 01:37:00,75.4,0.0,27.23,South,171,4.0,8.1,0,0.04,,---,0.07,VWS V13.01,2013-07-11 08:37:00,
2013-07-11 01:38:00,75.4,0.0,27.23,SSE,156,2.2,8.1,0,0.04,,---,0.07,VWS V13.01,2013-07-11 08:38:00,
2013-07-11 01:39:00,75.4,0.0,27.23,SSE,158,3.6,5.4,0,0.04,,---,0.07,VWS V13.01,2013-07-11 08:39:00,
2013-07-11 01:40:00,75.4,0.0,27.23,South,175,3.6,5.4,0,0.04,,---,0.07,VWS V13.01,2013-07-11 08:40:00,
2013-07-11 01:41:00,75.4,0.0,27.23,South,169,3.1,4.9,0,0.04,,---,0.07,VWS V13.01,2013-07-11 08:41:00,
2013-07-11 01:42:00,75.0,0.0,27.23,SSE,151,2.2,4.9,0,0.04,,---,0.07,VWS V13.01,2013-07-11 08:42:00,
2013-07-11 01:43:00,74.8,0.0,27.23,SSE,151,0.0,3.6,0,0.04,,---,0.07,VWS V13.01,2013-07-11 08:43:00,
2013-07-11 01:44:00,74.8,0.0,27.23,SE,146,3.1,3.6,0,0.04,,---,0.07,VWS V13.01,2013-07-11 08:44:00,
2013-07-11 01:45:00,74.8,0.0,27.23,SSE,157,3.1,4.0,0,0.04,,---,0.07,VWS V13.01,2013-07-11 08:45:00,
2013-07-11 01:46:00,74.8,0.0,27.23,SSW,192,4.0,4.0,0,0.04,,---,0.07,VWS V13.01,2013-07-11 08:46:00,
2013-07-11 01:47:00,74.8,0.0,27.23,South,178,5.4,5.8,0,0.04,,---,0.07,VWS V13.01,2013-07-11 08:47:00,
2013-07-11 01:48:00,74.8,0.0,27.23,South,178,5.4,5.8,0,0.04,,---,0.07,VWS V13.01,2013-07-11 08:48:00,
2013-07-11 01:49:00,74.8,0.0,27.23,South,171,4.0,6.3,0,0.04,,---,0.07,VWS V13.01,2013-07-11 08:49:00,
2013-07-11 01:50:00,74.5,0.0,27.23,SSE,168,2.7,6.3,0,0.04,,---,0.07,VWS V13.01,2013-07-11 08:50:00,
2013-07-11 01:51:00,74.5,0.0,27.23,SSE,168,5.4,6.3,0,0.02,,---,0.07,VWS V13.01,2013-07-11 08:51:00,
2013-07-11 01:52:00,74.3,0.0,27.23,South,190,5.8,5.8,0,0.02,,---,0.07,VWS V13.01,2013-07-11 08:52:00,
2013-07-11 01:53:00,74.3,0.0,27.23,South,186,4.0,5.8,0,0.02,,---,0.07,VWS V13.01,2013-07-11 08:53:00,
2013-07-11 01:54:00,74.3,0.0,27.23,South,171,0.0,5.8,0,0.02,,---,0.07,VWS V13.01,2013-07-11 08:54:00,
2013-07-11 01:55:00,74.1,0.0,27.23,SE,128,3.1,4.9,0,0.02,,---,0.07,VWS V13.01,2013-07-11 08:55:00,
2013-07-11 01:56:00,74.1,0.0,27.23,South,191,5.4,6.7,0,0.02,,---,0.07,VWS V13.01,2013-07-11 08:56:00,
2013-07-11 01:57:00,74.1,0.0,27.23,SSW,194,5.8,6.7,0,0.02,,---,0.07,VWS V13.01,2013-07-11 08:57:00,
2013-07-11 01:58:00,74.1,0.0,27.23,South,189,5.8,6.7,0,0.02,,---,0.07,VWS V13.01,2013-07-11 08:58:00,
2013-07-11 01:59:00,73.9,0.0,27.23,South,187,5.8,6.3,0,0.02,,---,0.07,VWS V13.01,2013-07-11 08:59:00,
2013-07-11 02:00:00,73.9,0.0,27.23,South,184,4.9,6.3,0,0.01,,---,0.07,VWS V13.01,2013-07-11 09:00:00,
2013-07-11 02:01:00,73.8,0.0,27.23,South,186,5.8,6.3,0,0.01,,---,0.07,VWS V13.01,2013-07-11 09:01:00,
2013-07-11 02:02:00,73.8,0.0,27.23,SSW,197,5.4,6.3,0,0.01,,---,0.07,VWS V13.01,2013-07-11 09:02:00,
2013-07-11 02:03:00,73.6,0.0,27.23,SSW,197,3.1,5.8,0,0.01,,---,0.07,VWS V13.01,2013-07-11 09:03:00,
2013-07-11 02:04:00,73.6,0.0,27.23,SSW,197,0.0,5.4,0,0.01,,---,0.07,VWS V13.01,2013-07-11 09:04:00,
2013-07-11 02:05:00,73.6,0.0,27.23,South,180,0.0,4.0,0,0.01,,---,0.07,VWS V13.01,2013-07-11 09:05:00,
2013-07-11 02:06:00,73.6,0.0,27.23,South,180,0.0,0.0,0,0.01,,---,0.07,VWS V13.01,2013-07-11 09:06:00,
2013-07-11 02:07:00,73.6,0.0,27.23,South,180,0.0,0.0,0,0.01,,---,0.07,VWS V13.01,2013-07-11 09:07:00,
2013-07-11 02:08:00,73.6,0.0,27.23,South,180,0.0,0.0,0,0.01,,---,0.07,VWS V13.01,2013-07-11 09:08:00,
2013-07-11 02:09:00,73.6,0.0,27.23,South,180,0.0,0.0,0,0.01,,---,0.07,VWS V13.01,2013-07-11 09:09:00,
2013-07-11 02:10:00,73.6,0.0,27.23,South,180,0.0,0.0,0,0.01,,---,0.07,VWS V13.01,2013-07-11 09:10:00,
2013-07-11 02:11:00,73.6,0.0,27.23,South,180,0.0,0.0,0,0.01,,---,0.07,VWS V13.01,2013-07-11 09:11:00,
2013-07-11 02:12:00,73.6,0.0,27.23,South,180,0.0,0.0,0,0.01,,---,0.07,VWS V13.01,2013-07-11 09:12:00,
2013-07-11 02:13:00,73.6,0.0,27.23,South,191,2.7,2.7,0,0.01,,---,0.07,VWS V13.01,2013-07-11 09:13:00,
2013-07-11 02:14:00,73.6,0.0,27.23,South,186,3.1,3.1,0,0.01,,---,0.08,VWS V13.01,2013-07-11 09:14:00,
2013-07-11 02:15:00,73.6,0.0,27.23,South,190,4.0,4.0,0,0.02,,---,0.08,VWS V13.01,2013-07-11 09:15:00,
2013-07-11 02:16:00,73.6,0.0,27.23,South,180,4.0,4.0,0,0.02,,---,0.08,VWS V13.01,2013-07-11 09:16:00,
2013-07-11 02:17:00,73.6,0.0,27.23,SSE,168,4.0,6.3,0,0.02,,---,0.08,VWS V13.01,2013-07-11 09:17:00,
2013-07-11 02:18:00,73.6,0.0,27.23,South,180,3.6,6.3,0,0.01,,---,0.08,VWS V13.01,2013-07-11 09:18:00,
2013-07-11 02:19:00,73.4,0.0,27.23,South,184,4.0,5.8,0,0.01,,---,0.08,VWS V13.01,2013-07-11 09:19:00,
2013-07-11 02:20:00,73.4,0.0,27.23,South,172,7.6,7.6,0,0.01,,---,0.08,VWS V13.01,2013-07-11 09:20:00,
2013-07-11 02:21:00,73.2,0.0,27.23,South,181,4.0,7.6,0,0.01,,---,0.08,VWS V13.01,2013-07-11 09:21:00,
2013-07-11 02:22:00,73.2,0.0,27.23,South,190,3.6,7.6,0,0.01,,---,0.08,VWS V13.01,2013-07-11 09:22:00,
2013-07-11 02:23:00,73.0,0.0,27.23,South,186,3.6,6.3,0,0.01,,---,0.08,VWS V13.01,2013-07-11 09:23:00,
2013-07-11 02:24:00,73.0,0.0,27.23,South,191,2.2,6.3,0,0.01,,---,0.08,VWS V13.01,2013-07-11 09:24:00,
2013-07-11 02:25:00,72.9,0.0,27.23,SSW,194,4.0,6.3,0,0.01,,---,0.08,VWS V13.01,2013-07-11 09:25:00,
2013-07-11 02:26:00,72.9,0.0,27.23,SSW,199,0.0,4.0,0,0.01,,---,0.08,VWS V13.01,2013-07-11 09:26:00,
2013-07-11 02:27:00,72.9,0.0,27.23,SSW,203,0.0,3.6,0,0.01,,---,0.08,VWS V13.01,2013-07-11 09:27:00,
2013-07-11 02:28:00,72.9,0.0,27.23,WSW,246,0.0,4.0,0,0.01,,---,0.08,VWS V13.01,2013-07-11 09:28:00,
2013-07-11 02:29:00,72.9,0.0,27.23,West,266,0.0,4.0,0,0.01,,---,0.08,VWS V13.01,2013-07-11 09:29:00,
2013-07-11 02:30:00,72.9,0.0,27.23,West,277,0.0,4.0,0,0.01,,---,0.08,VWS V13.01,2013-07-11 09:30:00,
2013-07-11 02:31:00,72.9,0.0,27.23,WNW,285,0.0,0.0,0,0.01,,---,0.08,VWS V13.01,2013-07-11 09:31:00,
2013-07-11 02:32:00,72.9,0.0,27.23,WNW,285,0.0,0.0,0,0.01,,---,0.08,VWS V13.01,2013-07-11 09:32:00,
2013-07-11 02:33:00,72.9,0.0,27.23,WNW,285,0.0,0.0,0,0.01,,---,0.08,VWS V13.01,2013-07-11 09:33:00,
2013-07-11 02:34:00,72.9,0.0,27.23,WNW,285,0.0,0.0,0,0.01,,---,0.08,VWS V13.01,2013-07-11 09:34:00,
2013-07-11 02:35:00,72.9,0.0,27.20,WNW,285,0.0,0.0,0,0.01,,---,0.08,VWS V13.01,2013-07-11 09:35:00,
2013-07-11 02:36:00,72.9,0.0,27.20,WNW,285,0.0,0.0,0,0.01,,---,0.08,VWS V13.01,2013-07-11 09:36:00,
2013-07-11 02:37:00,72.9,0.0,27.20,WNW,285,0.0,0.0,0,0.01,,---,0.08,VWS V13.01,2013-07-11 09:37:00,
2013-07-11 02:38:00,72.9,0.0,27.20,WNW,285,0.0,0.0,0,0.01,,---,0.08,VWS V13.01,2013-07-11 09:38:00,
2013-07-11 02:39:00,72.9,0.0,27.20,WNW,285,0.0,0.0,0,0.01,,---,0.08,VWS V13.01,2013-07-11 09:39:00,
2013-07-11 02:40:00,72.9,0.0,27.20,WNW,285,0.0,0.0,0,0.01,,---,0.08,VWS V13.01,2013-07-11 09:40:00,
2013-07-11 02:41:00,73.0,0.0,27.20,WNW,285,0.0,0.0,0,0.01,,---,0.08,VWS V13.01,2013-07-11 09:41:00,
2013-07-11 02:42:00,73.0,0.0,27.20,WNW,289,0.0,0.0,0,0.01,,---,0.08,VWS V13.01,2013-07-11 09:42:00,
2013-07-11 02:43:00,73.0,0.0,27.20,NNW,335,0.0,0.0,0,0.01,,---,0.08,VWS V13.01,2013-07-11 09:43:00,
2013-07-11 02:44:00,73.0,0.0,27.20,NNW,346,0.0,0.0,0,0.01,,---,0.08,VWS V13.01,2013-07-11 09:44:00,
2013-07-11 02:45:00,73.0,0.0,27.20,North,352,2.7,2.7,0,0.01,,---,0.08,VWS V13.01,2013-07-11 09:45:00,
2013-07-11 02:46:00,73.0,0.0,27.20,North,353,2.7,4.0,0,0.01,,---,0.08,VWS V13.01,2013-07-11 09:46:00,
2013-07-11 02:47:00,73.0,0.0,27.20,North,353,0.0,4.0,0,0.01,,---,0.08,VWS V13.01,2013-07-11 09:47:00,
2013-07-11 02:48:00,73.0,0.0,27.20,North,353,0.0,0.0,0,0.01,,---,0.08,VWS V13.01,2013-07-11 09:48:00,
2013-07-11 02:49:00,73.0,0.0,27.20,North,353,0.0,4.0,0,0.01,,---,0.08,VWS V13.01,2013-07-11 09:49:00,
2013-07-11 02:50:00,73.0,0.0,27.20,North,353,0.0,4.0,0,0.01,,---,0.08,VWS V13.01,2013-07-11 09:50:00,
2013-07-11 02:51:00,73.0,0.0,27.20,North,353,0.0,2.7,0,0.01,,---,0.08,VWS V13.01,2013-07-11 09:51:00,
2013-07-11 02:52:00,73.0,0.0,27.20,North,353,0.0,0.0,0,0.01,,---,0.08,VWS V13.01,2013-07-11 09:52:00,
2013-07-11 02:53:00,73.0,0.0,27.20,North,354,0.0,0.0,0,0.01,,---,0.08,VWS V13.01,2013-07-11 09:53:00,
2013-07-11 02:54:00,72.9,0.0,27.20,North,354,0.0,2.2,0,0.01,,---,0.08,VWS V13.01,2013-07-11 09:54:00,
2013-07-11 02:55:00,72.9,0.0,27.20,North,354,0.0,2.2,0,0.01,,---,0.08,VWS V13.01,2013-07-11 09:55:00,
2013-07-11 02:56:00,72.9,0.0,27.20,NNW,345,0.0,0.0,0,0.01,,---,0.08,VWS V13.01,2013-07-11 09:56:00,
2013-07-11 02:57:00,72.9,0.0,27.20,NNW,345,0.0,0.0,0,0.01,,---,0.08,VWS V13.01,2013-07-11 09:57:00,
2013-07-11 02:58:00,72.9,0.0,27.20,NNW,345,0.0,0.0,0,0.01,,---,0.08,VWS V13.01,2013-07-11 09:58:00,
2013-07-11 02:59:00,72.9,0.0,27.20,NNW,345,0.0,0.0,0,0.01,,---,0.08,VWS V13.01,2013-07-11 09:59:00,
2013-07-11 03:00:00,72.9,0.0,27.20,NNW,345,0.0,0.0,0,0.01,,---,0.08,VWS V13.01,2013-07-11 10:00:00,
2013-07-11 03:01:00,72.9,0.0,27.20,NNW,345,0.0,0.0,0,0.01,,---,0.08,VWS V13.01,2013-07-11 10:01:00,
2013-07-11 03:02:00,72.9,0.0,27.20,NNW,345,0.0,0.0,0,0.01,,---,0.08,VWS V13.01,2013-07-11 10:02:00,
2013-07-11 03:03:00,72.9,0.0,27.20,NNW,345,0.0,0.0,0,0.01,,---,0.08,VWS V13.01,2013-07-11 10:03:00,
2013-07-11 03:04:00,72.9,0.0,27.20,NNW,345,0.0,0.0,0,0.01,,---,0.08,VWS V13.01,2013-07-11 10:04:00,
2013-07-11 03:05:00,72.9,0.0,27.20,NNW,345,0.0,0.0,0,0.01,,---,0.08,VWS V13.01,2013-07-11 10:05:00,
2013-07-11 03:06:00,73.0,0.0,27.20,NNW,345,0.0,0.0,0,0.01,,---,0.08,VWS V13.01,2013-07-11 10:06:00,
2013-07-11 03:07:00,73.0,0.0,27.20,NNW,345,0.0,0.0,0,0.01,,---,0.08,VWS V13.01,2013-07-11 10:07:00,
2013-07-11 03:08:00,73.0,0.0,27.20,NNW,345,0.0,0.0,0,0.01,,---,0.08,VWS V13.01,2013-07-11 10:08:00,
2013-07-11 03:09:00,73.0,0.0,27.20,NNW,345,0.0,0.0,0,0.01,,---,0.08,VWS V13.01,2013-07-11 10:09:00,
2013-07-11 03:10:00,73.0,0.0,27.20,NNW,344,0.0,0.0,0,0.01,,---,0.08,VWS V13.01,2013-07-11 10:10:00,
2013-07-11 03:11:00,73.0,0.0,27.20,SW,219,0.0,0.0,0,0.01,,---,0.08,VWS V13.01,2013-07-11 10:11:00,
2013-07-11 03:12:00,73.0,0.0,27.20,SW,219,0.0,0.0,0,0.01,,---,0.08,VWS V13.01,2013-07-11 10:12:00,
2013-07-11 03:13:00,73.0,0.0,27.20,SW,217,0.0,0.0,0,0.01,,---,0.08,VWS V13.01,2013-07-11 10:13:00,
2013-07-11 03:14:00,73.0,0.0,27.20,SW,217,0.0,0.0,0,0.01,,---,0.08,VWS V13.01,2013-07-11 10:14:00,
2013-07-11 03:15:00,73.0,0.0,27.20,SW,217,0.0,0.0,0,0.00,,---,0.08,VWS V13.01,2013-07-11 10:15:00,
2013-07-11 03:16:00,73.0,0.0,27.20,SW,215,0.0,0.0,0,0.00,,---,0.08,VWS V13.01,2013-07-11 10:16:00,
2013-07-11 03:17:00,73.2,0.0,27.20,South,182,0.0,0.0,0,0.00,,---,0.08,VWS V13.01,2013-07-11 10:17:00,
2013-07-11 03:18:00,73.2,0.0,27.20,South,182,0.0,0.0,0,0.00,,---,0.08,VWS V13.01,2013-07-11 10:18:00,
2013-07-11 03:19:00,73.2,0.0,27.20,South,181,0.0,0.0,0,0.00,,---,0.08,VWS V13.01,2013-07-11 10:19:00,
2013-07-11 03:20:00,73.2,0.0,27.17,South,181,0.0,0.0,0,0.00,,---,0.08,VWS V13.01,2013-07-11 10:20:00,
2013-07-11 03:21:00,73.2,0.0,27.17,South,181,0.0,0.0,0,0.00,,---,0.08,VWS V13.01,2013-07-11 10:21:00,
2013-07-11 03:22:00,73.2,0.0,27.17,South,176,4.5,4.5,0,0.00,,---,0.08,VWS V13.01,2013-07-11 10:22:00,
2013-07-11 03:23:00,73.2,0.0,27.17,SE,137,2.7,4.9,0,0.00,,---,0.08,VWS V13.01,2013-07-11 10:23:00,
2013-07-11 03:24:00,73.2,0.0,27.17,South,169,4.0,4.9,0,0.00,,---,0.08,VWS V13.01,2013-07-11 10:24:00,
2013-07-11 03:25:00,73.2,0.0,27.17,SSE,166,4.0,4.9,0,0.00,,---,0.08,VWS V13.01,2013-07-11 10:25:00,
2013-07-11 03:26:00,73.2,0.0,27.17,SSE,168,4.0,4.0,0,0.00,,---,0.08,VWS V13.01,2013-07-11 10:26:00,
2013-07-11 03:27:00,73.2,0.0,27.17,SE,144,2.7,4.0,0,0.00,,---,0.08,VWS V13.01,2013-07-11 10:27:00,
2013-07-11 03:28:00,73.2,0.0,27.17,South,176,4.0,5.4,0,0.00,,---,0.08,VWS V13.01,2013-07-11 10:28:00,
2013-07-11 03:29:00,73.2,0.0,27.17,South,184,4.0,5.4,0,0.00,,---,0.08,VWS V13.01,2013-07-11 10:29:00,
2013-07-11 03:30:00,73.2,0.0,27.17,South,172,5.4,5.8,0,0.00,,---,0.08,VWS V13.01,2013-07-11 10:30:00,
2013-07-11 03:31:00,73.0,0.0,27.17,South,183,5.8,6.3,0,0.00,,---,0.08,VWS V13.01,2013-07-11 10:31:00,
2013-07-11 03:32:00,73.0,0.0,27.17,South,186,5.4,6.3,0,0.00,,---,0.08,VWS V13.01,2013-07-11 10:32:00,
2013-07-11 03:33:00,73.0,0.0,27.17,South,179,6.3,8.3,0,0.00,,---,0.08,VWS V13.01,2013-07-11 10:33:00,
2013-07-11 03:34:00,73.0,0.0,27.17,South,189,6.3,8.3,0,0.00,,---,0.08,VWS V13.01,2013-07-11 10:34:00,
2013-07-11 03:35:00,72.9,0.0,27.17,SSE,167,5.8,8.3,0,0.00,,---,0.08,VWS V13.01,2013-07-11 10:35:00,
2013-07-11 03:36:00,72.9,0.0,27.17,SSE,164,3.1,6.3,0,0.00,,---,0.08,VWS V13.01,2013-07-11 10:36:00,
2013-07-11 03:37:00,72.9,0.0,27.17,SSE,168,3.6,5.8,0,0.00,,---,0.08,VWS V13.01,2013-07-11 10:37:00,
2013-07-11 03:38:00,72.9,0.0,27.17,South,178,3.1,4.9,0,0.00,,---,0.08,VWS V13.01,2013-07-11 10:38:00,
2013-07-11 03:39:00,72.9,0.0,27.17,SE,134,5.4,5.8,0,0.00,,---,0.08,VWS V13.01,2013-07-11 10:39:00,
2013-07-11 03:40:00,72.9,0.0,27.17,SE,133,2.7,5.8,0,0.00,,---,0.08,VWS V13.01,2013-07-11 10:40:00,
2013-07-11 03:41:00,72.9,0.0,27.17,South,179,2.7,5.8,0,0.00,,---,0.08,VWS V13.01,2013-07-11 10:41:00,
2013-07-11 03:42:00,72.9,0.0,27.17,SSE,168,3.1,4.0,0,0.00,,---,0.08,VWS V13.01,2013-07-11 10:42:00,
2013-07-11 03:44:00,72.9,0.0,27.17,SSE,164,4.9,4.9,0,0.00,,---,0.08,VWS V13.01,2013-07-11 10:44:00,
2013-07-11 03:52:00,72.9,0.0,27.20,SSE,150,3.1,3.1,0,0.00,,---,0.02,VWS V13.01,2013-07-11 10:52:00,
2013-07-11 03:58:00,72.9,0.0,27.20,SSE,162,4.0,6.3,0,0.00,,---,0.08,VWS V13.01,2013-07-11 10:58:00,
2013-07-11 04:03:00,72.9,0.0,27.20,SSE,164,4.9,5.8,0,0.00,,---,0.08,VWS V13.01,2013-07-11 11:03:00,
2013-07-11 04:08:00,72.7,0.0,27.20,SSE,150,3.6,7.2,0,0.00,,---,0.08,VWS V13.01,2013-07-11 11:08:00,
2013-07-11 04:13:00,72.7,0.0,27.20,SE,137,4.0,4.9,0,0.00,,---,0.08,VWS V13.01,2013-07-11 11:13:00,
2013-07-11 04:18:00,72.7,0.0,27.20,South,180,4.9,5.8,0,0.00,,---,0.08,VWS V13.01,2013-07-11 11:18:00,
2013-07-11 04:23:00,72.5,0.0,27.20,ESE,107,3.1,3.6,0,0.00,,---,0.08,VWS V13.01,2013-07-11 11:23:00,
2013-07-11 04:29:00,72.5,0.0,27.20,ESE,111,4.0,4.9,0,0.00,,---,0.08,VWS V13.01,2013-07-11 11:29:00,
2013-07-11 04:34:00,72.5,0.0,27.20,ESE,112,2.2,4.9,0,0.00,,---,0.08,VWS V13.01,2013-07-11 11:34:00,
2013-07-11 04:39:00,72.5,0.0,27.20,South,174,3.1,5.4,0,0.00,,---,0.08,VWS V13.01,2013-07-11 11:39:00,
2013-07-11 04:44:00,72.3,0.0,27.20,South,177,5.4,5.4,0,0.00,,---,0.08,VWS V13.01,2013-07-11 11:44:00,
2013-07-11 04:50:00,72.3,0.0,27.20,South,172,4.9,5.4,0,0.00,,---,0.08,VWS V13.01,2013-07-11 11:50:00,
2013-07-11 04:55:00,72.3,0.0,27.20,South,177,5.4,5.8,0,0.00,,---,0.08,VWS V13.01,2013-07-11 11:55:00,
2013-07-11 05:00:00,72.3,0.0,27.20,ESE,120,3.1,7.6,0,0.00,,---,0.08,VWS V13.01,2013-07-11 12:00:00,
2013-07-11 05:05:00,72.3,0.0,27.20,ESE,114,2.7,4.0,0,0.00,,---,0.08,VWS V13.01,2013-07-11 12:05:00,
2013-07-11 05:10:00,72.1,0.0,27.20,ESE,103,3.1,5.4,0,0.00,,---,0.08,VWS V13.01,2013-07-11 12:10:00,
2013-07-11 05:15:00,72.1,0.0,27.20,ESE,118,2.2,5.8,0,0.00,,---,0.08,VWS V13.01,2013-07-11 12:15:00,
2013-07-11 05:21:00,72.1,0.0,27.23,SE,141,0.0,4.9,0,0.00,,---,0.08,VWS V13.01,2013-07-11 12:21:00,
2013-07-11 05:26:00,72.1,0.0,27.23,ESE,103,2.7,4.9,0,0.00,,---,0.08,VWS V13.01,2013-07-11 12:26:00,
2013-07-11 05:31:00,72.1,0.0,27.23,SE,138,0.0,0.0,0,0.00,,---,0.08,VWS V13.01,2013-07-11 12:31:00,
2013-07-11 05:37:00,72.1,0.0,27.23,ESE,109,0.0,4.5,0,0.00,,---,0.08,VWS V13.01,2013-07-11 12:37:00,
2013-07-11 05:42:00,72.3,0.0,27.23,South,172,3.1,5.4,0,0.00,,---,0.08,VWS V13.01,2013-07-11 12:42:00,
2013-07-11 05:47:00,72.5,0.0,27.23,SSE,151,4.0,4.0,0,0.00,,---,0.08,VWS V13.01,2013-07-11 12:47:00,
2013-07-11 05:53:00,72.7,0.0,27.23,ESE,108,0.0,2.7,0,0.00,,---,0.08,VWS V13.01,2013-07-11 12:53:00,
2013-07-11 05:58:00,72.9,0.0,27.23,ESE,110,3.6,3.6,0,0.00,,---,0.08,VWS V13.01,2013-07-11 12:58:00,
2013-07-11 06:03:00,73.2,0.0,27.23,ESE,115,2.2,3.6,0,0.00,,---,0.08,VWS V13.01,2013-07-11 13:03:00,
2013-07-11 06:08:00,73.6,0.0,27.23,East,85,0.0,0.0,0,0.00,,---,0.08,VWS V13.01,2013-07-11 13:08:00,
2013-07-11 06:14:00,73.9,0.0,27.23,East,92,0.0,3.6,0,0.00,,---,0.08,VWS V13.01,2013-07-11 13:14:00,
2013-07-11 06:19:00,74.5,0.0,27.23,East,92,0.0,3.6,0,0.00,,---,0.08,VWS V13.01,2013-07-11 13:19:00,
2013-07-11 06:24:00,74.8,0.0,27.23,East,95,0.0,0.0,0,0.00,,---,0.08,VWS V13.01,2013-07-11 13:24:00,
2013-07-11 06:30:00,75.4,0.0,27.23,ESE,115,0.0,0.0,0,0.00,,---,0.08,VWS V13.01,2013-07-11 13:30:00,
2013-07-11 06:35:00,75.9,0.0,27.23,ESE,115,0.0,0.0,0,0.00,,---,0.08,VWS V13.01,2013-07-11 13:35:00,
2013-07-11 06:40:00,76.6,0.0,27.23,ESE,115,0.0,0.0,0,0.00,,---,0.08,VWS V13.01,2013-07-11 13:40:00,
2013-07-11 06:45:00,77.2,0.0,27.23,East,99,2.7,3.6,0,0.00,,---,0.08,VWS V13.01,2013-07-11 13:45:00,
2013-07-11 06:50:00,77.7,0.0,27.23,East,97,0.0,0.0,0,0.00,,---,0.08,VWS V13.01,2013-07-11 13:50:00,
2013-07-11 06:56:00,85.5,0.0,27.23,East,94,0.0,0.0,0,0.00,,---,0.08,VWS V13.01,2013-07-11 13:56:00,
2013-07-11 07:01:00,88.2,0.0,27.23,East,90,0.0,0.0,0,0.00,,---,0.08,VWS V13.01,2013-07-11 14:01:00,
2013-07-11 07:06:00,91.2,0.0,27.23,East,87,0.0,4.0,0,0.00,,---,0.08,VWS V13.01,2013-07-11 14:06:00,
2013-07-11 07:11:00,93.0,0.0,27.23,NE,53,0.0,4.9,0,0.00,,---,0.08,VWS V13.01,2013-07-11 14:11:00,
2013-07-11 07:17:00,93.9,0.0,27.23,NNE,26,0.0,0.0,0,0.00,,---,0.08,VWS V13.01,2013-07-11 14:17:00,
2013-07-11 07:22:00,94.5,0.0,27.23,East,80,3.1,4.0,0,0.00,,---,0.08,VWS V13.01,2013-07-11 14:22:00,
2013-07-11 07:28:00,95.4,0.0,27.23,NE,50,2.7,5.4,0,0.00,,---,0.08,VWS V13.01,2013-07-11 14:28:00,
2013-07-11 07:33:00,97.3,0.0,27.23,NNE,18,0.0,6.3,0,0.00,,---,0.08,VWS V13.01,2013-07-11 14:33:00,
2013-07-11 07:38:00,97.7,0.0,27.23,NE,51,3.1,4.0,0,0.00,,---,0.08,VWS V13.01,2013-07-11 14:38:00,
2013-07-11 07:44:00,100.9,0.0,27.23,NNE,32,2.7,4.0,0,0.00,,---,0.08,VWS V13.01,2013-07-11 14:44:00,
2013-07-11 07:49:00,102.2,0.0,27.23,NNE,14,0.0,0.0,0,0.00,,---,0.08,VWS V13.01,2013-07-11 14:49:00,
2013-07-11 07:55:00,104.2,0.0,27.23,NNE,19,0.0,0.0,0,0.00,,---,0.08,VWS V13.01,2013-07-11 14:55:00,
2013-07-11 08:00:00,105.8,0.0,27.23,North,358,0.0,4.5,0,0.00,,---,0.08,VWS V13.01,2013-07-11 15:00:00,
2013-07-11 08:05:00,108.1,0.0,27.23,North,2,0.0,0.0,0,0.00,,---,0.08,VWS V13.01,2013-07-11 15:05:00,
2013-07-11 08:10:00,102.9,0.0,27.23,North,360,0.0,4.0,0,0.00,,---,0.08,VWS V13.01,2013-07-11 15:10:00,
2013-07-11 08:15:00,104.2,0.0,27.23,North,7,2.7,3.6,0,0.00,,---,0.08,VWS V13.01,2013-07-11 15:15:00,
2013-07-11 08:20:00,106.0,0.0,27.23,NNE,14,0.0,0.0,0,0.00,,---,0.08,VWS V13.01,2013-07-11 15:20:00,
2013-07-11 08:25:00,103.8,0.0,27.23,NNE,14,0.0,0.0,0,0.00,,---,0.08,VWS V13.01,2013-07-11 15:25:00,
2013-07-11 08:30:00,95.4,0.0,27.23,NNW,328,0.0,0.0,0,0.00,,---,0.08,VWS V13.01,2013-07-11 15:30:00,
2013-07-11 08:35:00,91.6,0.0,27.23,NNW,333,0.0,0.0,0,0.00,,---,0.08,VWS V13.01,2013-07-11 15:35:00,
2013-07-11 08:41:00,90.7,0.0,27.23,NNW,338,0.0,3.6,0,0.00,,---,0.08,VWS V13.01,2013-07-11 15:41:00,
2013-07-11 08:47:00,89.4,0.0,27.23,NNW,333,0.0,0.0,0,0.00,,---,0.08,VWS V13.01,2013-07-11 15:47:00,
2013-07-11 08:52:00,89.8,0.0,27.23,NNW,328,0.0,0.0,0,0.00,,---,0.08,VWS V13.01,2013-07-11 15:52:00,
2013-07-11 08:57:00,90.3,0.0,27.23,ENE,66,2.7,4.0,0,0.00,,---,0.08,VWS V13.01,2013-07-11 15:57:00,
2013-07-11 09:02:00,90.9,0.0,27.23,NE,46,0.0,4.0,0,0.00,,---,0.08,VWS V13.01,2013-07-11 16:02:00,
2013-07-11 09:08:00,91.2,0.0,27.23,NE,36,0.0,0.0,0,0.00,,---,0.08,VWS V13.01,2013-07-11 16:08:00,
2013-07-11 09:13:00,90.9,0.0,27.23,NE,49,0.0,0.0,0,0.00,,---,0.08,VWS V13.01,2013-07-11 16:13:00,
2013-07-11 09:19:00,91.0,0.0,27.23,ENE,78,5.8,5.8,0,0.00,,---,0.08,VWS V13.01,2013-07-11 16:19:00,
2013-07-11 09:24:00,90.7,0.0,27.23,North,11,0.0,4.0,0,0.00,,---,0.08,VWS V13.01,2013-07-11 16:24:00,
2013-07-11 09:29:00,89.4,0.0,27.23,North,4,0.0,0.0,0,0.00,,---,0.08,VWS V13.01,2013-07-11 16:29:00,
2013-07-11 09:34:00,89.8,0.0,27.23,West,281,0.0,4.9,0,0.00,,---,0.08,VWS V13.01,2013-07-11 16:34:00,
2013-07-11 09:39:00,89.4,0.0,27.23,West,272,0.0,0.0,0,0.00,,---,0.08,VWS V13.01,2013-07-11 16:39:00,
2013-07-11 09:45:00,89.8,0.0,27.23,WNW,285,0.0,4.9,0,0.00,,---,0.08,VWS V13.01,2013-07-11 16:45:00,
2013-07-11 09:50:00,89.8,0.0,27.23,NW,316,4.0,5.4,0,0.00,,---,0.08,VWS V13.01,2013-07-11 16:50:00,
2013-07-11 09:55:00,89.8,0.0,27.23,East,101,4.0,4.0,0,0.00,,---,0.08,VWS V13.01,2013-07-11 16:55:00,
2013-07-11 10:00:00,91.2,0.0,27.23,West,264,4.0,5.4,0,0.00,,---,0.08,VWS V13.01,2013-07-11 17:00:00,
2013-07-11 10:05:00,91.4,0.0,27.23,West,264,0.0,0.0,0,0.00,,---,0.08,VWS V13.01,2013-07-11 17:05:00,
2013-07-11 10:10:00,91.6,0.0,27.23,South,170,2.2,7.6,0,0.00,,---,0.08,VWS V13.01,2013-07-11 17:10:00,
2013-07-11 10:16:00,91.8,0.0,27.23,SE,132,2.7,6.3,0,0.00,,---,0.08,VWS V13.01,2013-07-11 17:16:00,
2013-07-11 10:22:00,92.7,0.0,27.23,ESE,123,0.0,0.0,0,0.00,,---,0.08,VWS V13.01,2013-07-11 17:22:00,
2013-07-11 10:28:00,92.8,0.0,27.23,South,186,0.0,0.0,0,0.00,,---,0.08,VWS V13.01,2013-07-11 17:28:00,
2013-07-11 10:33:00,92.5,0.0,27.23,East,92,0.0,2.7,0,0.00,,---,0.08,VWS V13.01,2013-07-11 17:33:00,
2013-07-11 10:38:00,93.6,0.0,27.23,SSW,210,4.0,4.0,0,0.00,,---,0.08,VWS V13.01,2013-07-11 17:38:00,
2013-07-11 10:43:00,94.1,0.0,27.23,West,263,4.9,4.9,0,0.00,,---,0.08,VWS V13.01,2013-07-11 17:43:00,
2013-07-11 10:50:00,94.1,0.0,27.23,ESE,104,0.0,4.0,0,0.00,,---,0.08,VWS V13.01,2013-07-11 17:50:00,
2013-07-11 10:55:00,94.8,0.0,27.20,WSW,249,0.0,0.0,0,0.00,,---,0.08,VWS V13.01,2013-07-11 17:55:00,
2013-07-11 11:01:00,94.3,0.0,27.20,WNW,284,2.7,5.4,0,0.00,,---,0.08,VWS V13.01,2013-07-11 18:01:00,
2013-07-11 11:06:00,93.4,0.0,27.20,WNW,290,0.0,3.6,0,0.00,,---,0.08,VWS V13.01,2013-07-11 18:06:00,
2013-07-11 11:11:00,93.7,0.0,27.20,WNW,285,0.0,6.3,0,0.00,,---,0.08,VWS V13.01,2013-07-11 18:11:00,
2013-07-11 11:16:00,94.3,0.0,27.20,SW,231,3.1,5.8,0,0.00,,---,0.08,VWS V13.01,2013-07-11 18:16:00,
2013-07-11 11:22:00,94.6,0.0,27.20,NNW,328,3.6,4.9,0,0.00,,---,0.08,VWS V13.01,2013-07-11 18:22:00,
2013-07-11 11:27:00,95.2,0.0,27.20,SSW,209,0.0,4.0,0,0.00,,---,0.08,VWS V13.01,2013-07-11 18:27:00,
2013-07-11 11:33:00,95.5,0.0,27.20,SW,236,0.0,5.4,0,0.00,,---,0.08,VWS V13.01,2013-07-11 18:33:00,
2013-07-11 11:38:00,95.2,0.0,27.20,WNW,286,0.0,5.8,0,0.00,,---,0.08,VWS V13.01,2013-07-11 18:38:00,
2013-07-11 11:44:00,95.2,0.0,27.20,SW,227,0.0,4.0,0,0.00,,---,0.08,VWS V13.01,2013-07-11 18:44:00,
2013-07-11 11:49:00,95.9,0.0,27.20,WNW,287,7.6,9.6,0,0.00,,---,0.08,VWS V13.01,2013-07-11 18:49:00,
2013-07-11 11:55:00,94.6,0.0,27.20,WNW,287,0.0,3.6,0,0.00,,---,0.08,VWS V13.01,2013-07-11 18:55:00,
2013-07-11 12:00:00,94.5,0.0,27.20,NNW,344,0.0,3.1,0,0.00,,---,0.08,VWS V13.01,2013-07-11 19:00:00,
2013-07-11 12:06:00,94.8,0.0,27.20,SE,130,0.0,5.4,0,0.00,,---,0.08,VWS V13.01,2013-07-11 19:06:00,
2013-07-11 12:11:00,96.3,0.0,27.20,SW,222,4.9,6.3,0,0.00,,---,0.08,VWS V13.01,2013-07-11 19:11:00,
2013-07-11 12:16:00,95.9,0.0,27.20,West,275,4.9,8.7,0,0.00,,---,0.08,VWS V13.01,2013-07-11 19:16:00,
2013-07-11 12:21:00,96.4,0.0,27.20,WNW,301,4.0,6.3,0,0.00,,---,0.08,VWS V13.01,2013-07-11 19:21:00,
2013-07-11 12:27:00,96.1,0.0,27.20,WNW,299,4.5,5.8,0,0.00,,---,0.08,VWS V13.01,2013-07-11 19:27:00,
2013-07-11 12:33:00,96.6,0.0,27.20,WNW,295,2.7,3.6,0,0.00,,---,0.08,VWS V13.01,2013-07-11 19:33:00,
2013-07-11 12:38:00,96.6,0.0,27.17,NNW,337,0.0,0.0,0,0.00,,---,0.08,VWS V13.01,2013-07-11 19:38:00,
2013-07-11 12:43:00,97.0,0.0,27.17,West,260,5.8,6.3,0,0.00,,---,0.08,VWS V13.01,2013-07-11 19:43:00,
2013-07-11 12:49:00,96.1,0.0,27.17,SW,219,3.6,6.3,0,0.00,,---,0.08,VWS V13.01,2013-07-11 19:49:00,
2013-07-11 12:54:00,95.9,0.0,27.17,WSW,250,0.0,4.0,0,0.00,,---,0.08,VWS V13.01,2013-07-11 19:54:00,
2013-07-11 13:00:00,96.6,0.0,27.17,SE,143,2.2,4.9,0,0.00,,---,0.08,VWS V13.01,2013-07-11 20:00:00,
2013-07-11 13:06:00,96.6,0.0,27.17,WNW,287,3.1,6.3,0,0.00,,---,0.08,VWS V13.01,2013-07-11 20:06:00,
2013-07-11 13:11:00,95.5,0.0,27.17,West,276,6.3,6.3,0,0.00,,---,0.08,VWS V13.01,2013-07-11 20:11:00,
2013-07-11 13:16:00,95.5,0.0,27.17,South,188,5.4,5.8,0,0.00,,---,0.08,VWS V13.01,2013-07-11 20:16:00,
2013-07-11 13:21:00,95.4,0.0,27.17,South,184,3.1,4.0,0,0.00,,---,0.08,VWS V13.01,2013-07-11 20:21:00,
2013-07-11 13:26:00,95.5,0.0,27.17,SW,234,2.7,4.0,0,0.00,,---,0.08,VWS V13.01,2013-07-11 20:26:00,
2013-07-11 13:31:00,96.1,0.0,27.17,West,264,0.0,6.3,0,0.00,,---,0.08,VWS V13.01,2013-07-11 20:31:00,
2013-07-11 13:36:00,96.3,0.0,27.17,SSW,209,4.9,4.9,0,0.00,,---,0.08,VWS V13.01,2013-07-11 20:36:00,
2013-07-11 13:41:00,95.9,0.0,27.17,SW,222,0.0,4.9,0,0.00,,---,0.08,VWS V13.01,2013-07-11 20:41:00,
2013-07-11 13:46:00,94.8,0.0,27.17,WNW,282,2.7,6.3,0,0.00,,---,0.08,VWS V13.01,2013-07-11 20:46:00,
2013-07-11 13:51:00,93.9,0.0,27.17,WSW,240,5.8,7.6,0,0.00,,---,0.08,VWS V13.01,2013-07-11 20:51:00,
2013-07-11 13:57:00,92.7,0.0,27.17,WNW,294,6.3,7.6,0,0.00,,---,0.08,VWS V13.01,2013-07-11 20:57:00,
2013-07-11 14:02:00,92.1,0.0,27.17,NW,307,5.4,8.1,0,0.00,,---,0.08,VWS V13.01,2013-07-11 21:02:00,
2013-07-11 14:07:00,92.1,0.0,27.17,WNW,284,8.7,9.2,0,0.00,,---,0.08,VWS V13.01,2013-07-11 21:07:00,
2013-07-11 14:13:00,91.4,0.0,27.17,WNW,298,8.3,8.3,0,0.00,,---,0.08,VWS V13.01,2013-07-11 21:13:00,
2013-07-11 14:19:00,91.4,0.0,27.17,West,280,5.8,11.0,0,0.00,,---,0.08,VWS V13.01,2013-07-11 21:19:00,
2013-07-11 14:24:00,90.5,0.0,27.14,West,262,7.6,13.2,0,0.00,,---,0.08,VWS V13.01,2013-07-11 21:24:00,
2013-07-11 14:29:00,90.1,0.0,27.14,West,266,12.3,12.3,0,0.00,,---,0.08,VWS V13.01,2013-07-11 21:29:00,
2013-07-11 14:34:00,88.9,0.0,27.14,West,275,12.8,12.8,0,0.00,,---,0.08,VWS V13.01,2013-07-11 21:34:00,
2013-07-11 14:40:00,88.2,0.0,27.17,West,280,5.8,9.6,0,0.00,,---,0.08,VWS V13.01,2013-07-11 21:40:00,
2013-07-11 14:45:00,88.5,0.0,27.17,WNW,294,7.6,11.0,0,0.00,,---,0.08,VWS V13.01,2013-07-11 21:45:00,
2013-07-11 14:50:00,88.3,0.0,27.17,West,280,5.8,10.1,0,0.00,,---,0.08,VWS V13.01,2013-07-11 21:50:00,
2013-07-11 14:55:00,88.0,0.0,27.17,West,278,3.6,8.1,0,0.00,,---,0.08,VWS V13.01,2013-07-11 21:55:00,
2013-07-11 15:00:00,88.9,0.0,27.17,WNW,288,5.8,12.3,0,0.00,,---,0.08,VWS V13.01,2013-07-11 22:00:00,
2013-07-11 15:05:00,90.0,0.0,27.14,West,259,12.8,12.8,0,0.00,,---,0.08,VWS V13.01,2013-07-11 22:05:00,
2013-07-11 15:11:00,90.3,0.0,27.14,WNW,287,8.3,10.1,0,0.00,,---,0.08,VWS V13.01,2013-07-11 22:11:00,
2013-07-11 15:17:00,91.0,0.0,27.14,WNW,287,8.7,8.7,0,0.00,,---,0.08,VWS V13.01,2013-07-11 22:17:00,
2013-07-11 15:22:00,91.8,0.0,27.17,WSW,251,5.4,11.0,0,0.00,,---,0.08,VWS V13.01,2013-07-11 22:22:00,
2013-07-11 15:27:00,92.8,0.0,27.17,SW,230,6.3,8.7,0,0.00,,---,0.08,VWS V13.01,2013-07-11 22:27:00,
2013-07-11 15:32:00,92.1,0.0,27.17,WSW,248,6.3,10.1,0,0.00,,---,0.08,VWS V13.01,2013-07-11 22:32:00,
2013-07-11 15:37:00,91.6,0.0,27.14,WNW,286,3.1,5.8,0,0.00,,---,0.08,VWS V13.01,2013-07-11 22:37:00,
2013-07-11 15:43:00,92.1,0.0,27.14,WNW,297,6.3,9.6,0,0.00,,---,0.08,VWS V13.01,2013-07-11 22:43:00,
2013-07-11 15:48:00,92.1,0.0,27.14,WNW,294,5.8,8.3,0,0.00,,---,0.08,VWS V13.01,2013-07-11 22:48:00,
2013-07-11 15:53:00,91.2,0.0,27.14,NW,314,5.8,8.1,0,0.00,,---,0.08,VWS V13.01,2013-07-11 22:53:00,
2013-07-11 15:58:00,90.3,0.0,27.14,WNW,290,6.3,8.1,0,0.00,,---,0.08,VWS V13.01,2013-07-11 22:58:00,
2013-07-11 16:03:00,90.0,0.0,27.14,West,259,5.4,6.3,0,0.00,,---,0.08,VWS V13.01,2013-07-11 23:03:00,
2013-07-11 16:08:00,89.6,0.0,27.14,West,279,5.8,8.7,0,0.00,,---,0.08,VWS V13.01,2013-07-11 23:08:00,
2013-07-11 16:14:00,89.4,0.0,27.14,West,268,5.4,7.6,0,0.00,,---,0.08,VWS V13.01,2013-07-11 23:14:00,
2013-07-11 16:19:00,89.2,0.0,27.14,WNW,286,4.9,7.6,0,0.00,,---,0.08,VWS V13.01,2013-07-11 23:19:00,
2013-07-11 16:24:00,89.4,0.0,27.14,West,276,4.9,7.6,0,0.00,,---,0.08,VWS V13.01,2013-07-11 23:24:00,
2013-07-11 16:29:00,89.8,0.0,27.14,NW,323,3.6,5.8,0,0.00,,---,0.08,VWS V13.01,2013-07-11 23:29:00,
2013-07-11 16:34:00,90.3,0.0,27.14,West,264,0.0,8.1,0,0.00,,---,0.08,VWS V13.01,2013-07-11 23:34:00,
2013-07-11 16:40:00,91.0,0.0,27.14,West,275,3.1,8.7,0,0.00,,---,0.08,VWS V13.01,2013-07-11 23:40:00,
2013-07-11 16:45:00,91.6,0.0,27.14,WNW,287,4.9,5.8,0,0.00,,---,0.08,VWS V13.01,2013-07-11 23:45:00,
2013-07-11 16:50:00,93.7,0.0,27.14,WNW,290,4.9,4.9,0,0.00,,---,0.08,VWS V13.01,2013-07-11 23:50:00,
2013-07-11 16:56:00,93.4,0.0,27.14,West,270,5.4,6.7,0,0.00,,---,0.08,VWS V13.01,2013-07-11 23:56:00,
2013-07-11 17:01:00,92.3,0.0,27.14,WNW,287,4.0,4.5,0,0.00,,---,0.08,VWS V13.01,2013-07-12 00:01:00,
2013-07-11 17:06:00,91.6,0.0,27.11,WNW,293,4.9,8.3,0,0.00,,---,0.08,VWS V13.01,2013-07-12 00:06:00,
2013-07-11 17:11:00,91.0,0.0,27.11,WNW,297,0.0,5.4,0,0.00,,---,0.08,VWS V13.01,2013-07-12 00:11:00,
2013-07-11 17:17:00,91.0,0.0,27.11,West,273,3.6,6.3,0,0.00,,---,0.08,VWS V13.01,2013-07-12 00:17:00,
2013-07-11 17:22:00,90.7,0.0,27.11,WNW,290,3.1,5.8,0,0.00,,---,0.08,VWS V13.01,2013-07-12 00:22:00,
2013-07-11 17:27:00,90.3,0.0,27.11,WNW,298,3.6,5.8,0,0.00,,---,0.08,VWS V13.01,2013-07-12 00:27:00,
2013-07-11 17:33:00,90.1,0.0,27.11,NW,321,0.0,5.8,0,0.00,,---,0.08,VWS V13.01,2013-07-12 00:33:00,
2013-07-11 17:38:00,89.6,0.0,27.14,WNW,289,8.7,8.7,0,0.00,,---,0.08,VWS V13.01,2013-07-12 00:38:00,
2013-07-11 17:43:00,89.4,0.0,27.14,WNW,299,3.6,5.8,0,0.00,,---,0.08,VWS V13.01,2013-07-12 00:43:00,
2013-07-11 17:48:00,89.2,0.0,27.14,NW,305,7.6,7.6,0,0.00,,---,0.08,VWS V13.01,2013-07-12 00:48:00,
2013-07-11 17:53:00,89.2,0.0,27.14,WNW,294,4.9,5.4,0,0.00,,---,0.08,VWS V13.01,2013-07-12 00:53:00,
2013-07-11 17:59:00,88.7,0.0,27.14,NW,305,2.7,3.6,0,0.00,,---,0.08,VWS V13.01,2013-07-12 00:59:00,
2013-07-11 18:04:00,88.3,0.0,27.14,West,267,4.5,6.3,0,0.00,,---,0.08,VWS V13.01,2013-07-12 01:04:00,
2013-07-11 18:09:00,88.2,0.0,27.11,North,356,0.0,4.0,0,0.00,,---,0.08,VWS V13.01,2013-07-12 01:09:00,
2013-07-11 18:15:00,88.0,0.0,27.11,West,280,0.0,4.0,0,0.00,,---,0.08,VWS V13.01,2013-07-12 01:15:00,
2013-07-11 18:20:00,87.6,0.0,27.11,NNW,339,0.0,5.8,0,0.00,,---,0.08,VWS V13.01,2013-07-12 01:20:00,
2013-07-11 18:26:00,87.4,0.0,27.11,West,273,0.0,7.6,0,0.00,,---,0.08,VWS V13.01,2013-07-12 01:26:00,
2013-07-11 18:31:00,87.4,0.0,27.11,WNW,302,0.0,4.0,0,0.00,,---,0.08,VWS V13.01,2013-07-12 01:31:00,
2013-07-11 18:37:00,87.3,0.0,27.14,WSW,246,4.0,5.8,0,0.00,,---,0.08,VWS V13.01,2013-07-12 01:37:00,
2013-07-11 18:42:00,87.3,0.0,27.14,WNW,284,2.7,5.8,0,0.00,,---,0.08,VWS V13.01,2013-07-12 01:42:00,
2013-07-11 18:47:00,87.1,0.0,27.14,West,264,4.0,6.3,0,0.00,,---,0.08,VWS V13.01,2013-07-12 01:47:00,
2013-07-11 18:53:00,87.1,0.0,27.11,WSW,258,3.6,6.3,0,0.00,,---,0.08,VWS V13.01,2013-07-12 01:53:00,
2013-07-11 18:58:00,86.9,0.0,27.11,WNW,297,0.0,0.0,0,0.00,,---,0.08,VWS V13.01,2013-07-12 01:58:00,
2013-07-11 19:04:00,86.9,0.0,27.11,WNW,292,3.6,4.9,0,0.00,,---,0.08,VWS V13.01,2013-07-12 02:04:00,
2013-07-11 19:09:00,86.7,0.0,27.14,WNW,299,0.0,2.7,0,0.00,,---,0.08,VWS V13.01,2013-07-12 02:09:00,
2013-07-11 19:14:00,86.5,0.0,27.14,WNW,296,2.7,3.6,0,0.00,,---,0.08,VWS V13.01,2013-07-12 02:14:00,
2013-07-11 19:19:00,86.4,0.0,27.14,WNW,290,2.7,7.6,0,0.00,,---,0.08,VWS V13.01,2013-07-12 02:19:00,
2013-07-11 19:24:00,86.2,0.0,27.14,WNW,291,0.0,4.0,0,0.00,,---,0.08,VWS V13.01,2013-07-12 02:24:00,
2013-07-11 19:30:00,86.2,0.0,27.14,West,279,2.7,2.7,0,0.00,,---,0.08,VWS V13.01,2013-07-12 02:30:00,
2013-07-11 19:35:00,86.0,0.0,27.14,WNW,288,0.0,3.1,0,0.00,,---,0.08,VWS V13.01,2013-07-12 02:35:00,
2013-07-11 19:40:00,85.8,0.0,27.14,WNW,283,0.0,0.0,0,0.00,,---,0.08,VWS V13.01,2013-07-12 02:40:00,
2013-07-11 19:45:00,85.6,0.0,27.14,WNW,293,0.0,0.0,0,0.00,,---,0.08,VWS V13.01,2013-07-12 02:45:00,
2013-07-11 19:51:00,85.5,0.0,27.14,WNW,294,0.0,0.0,0,0.00,,---,0.08,VWS V13.01,2013-07-12 02:51:00,
2013-07-11 19:56:00,85.5,0.0,27.14,West,278,0.0,3.1,0,0.00,,---,0.08,VWS V13.01,2013-07-12 02:56:00,
2013-07-11 20:01:00,85.3,0.0,27.14,West,265,2.2,4.0,0,0.00,,---,0.08,VWS V13.01,2013-07-12 03:01:00,
2013-07-11 20:07:00,85.1,0.0,27.14,West,275,0.0,3.1,0,0.00,,---,0.08,VWS V13.01,2013-07-12 03:07:00,
2013-07-11 20:12:00,84.9,0.0,27.14,West,264,0.0,0.0,0,0.00,,---,0.08,VWS V13.01,2013-07-12 03:12:00,
2013-07-11 20:17:00,84.7,0.0,27.14,West,264,0.0,0.0,0,0.00,,---,0.08,VWS V13.01,2013-07-12 03:17:00,
2013-07-11 20:22:00,84.6,0.0,27.11,West,272,0.0,0.0,0,0.00,,---,0.08,VWS V13.01,2013-07-12 03:22:00,
2013-07-11 20:28:00,84.2,0.0,27.11,West,272,0.0,0.0,0,0.00,,---,0.08,VWS V13.01,2013-07-12 03:28:00,
2013-07-11 20:33:00,84.2,0.0,27.11,West,272,0.0,0.0,0,0.00,,---,0.08,VWS V13.01,2013-07-12 03:33:00,
2013-07-11 20:38:00,84.0,0.0,27.11,West,272,0.0,0.0,0,0.00,,---,0.08,VWS V13.01,2013-07-12 03:38:00,
2013-07-11 20:43:00,84.0,0.0,27.11,West,272,0.0,0.0,0,0.00,,---,0.08,VWS V13.01,2013-07-12 03:43:00,
2013-07-11 20:48:00,83.8,0.0,27.11,West,272,0.0,0.0,0,0.00,,---,0.08,VWS V13.01,2013-07-12 03:48:00,
2013-07-11 20:54:00,83.5,0.0,27.11,West,272,0.0,0.0,0,0.00,,---,0.08,VWS V13.01,2013-07-12 03:54:00,
2013-07-11 20:59:00,83.3,0.0,27.11,West,272,0.0,0.0,0,0.00,,---,0.08,VWS V13.01,2013-07-12 03:59:00,
2013-07-11 21:01:00,83.1,0.0,27.11,West,272,0.0,0.0,0,0.00,,---,0.08,VWS V13.01,2013-07-12 04:01:00,
2013-07-11 21:02:00,83.1,0.0,27.11,West,272,0.0,0.0,0,0.00,,---,0.08,VWS V13.01,2013-07-12 04:02:00,
2013-07-11 21:03:00,83.1,0.0,27.11,West,272,0.0,0.0,0,0.00,,---,0.08,VWS V13.01,2013-07-12 04:03:00,
2013-07-11 21:09:00,82.9,0.0,27.14,West,272,0.0,0.0,0,0.00,,---,0.08,VWS V13.01,2013-07-12 04:09:00,
2013-07-11 21:14:00,82.8,0.0,27.14,West,272,0.0,0.0,0,0.00,,---,0.08,VWS V13.01,2013-07-12 04:14:00,
2013-07-11 21:19:00,82.6,0.0,27.14,West,272,0.0,0.0,0,0.00,,---,0.08,VWS V13.01,2013-07-12 04:19:00,
2013-07-11 21:25:00,82.6,0.0,27.14,West,272,0.0,0.0,0,0.00,,---,0.08,VWS V13.01,2013-07-12 04:25:00,
2013-07-11 21:30:00,82.4,0.0,27.14,West,272,0.0,0.0,0,0.00,,---,0.08,VWS V13.01,2013-07-12 04:30:00,
2013-07-11 21:35:00,82.4,0.0,27.14,West,272,0.0,0.0,0,0.00,,---,0.08,VWS V13.01,2013-07-12 04:35:00,
2013-07-11 21:40:00,82.2,0.0,27.14,West,274,0.0,0.0,0,0.00,,---,0.08,VWS V13.01,2013-07-12 04:40:00,
2013-07-11 21:46:00,82.2,0.0,27.14,West,274,0.0,0.0,0,0.00,,---,0.08,VWS V13.01,2013-07-12 04:46:00,
2013-07-11 21:51:00,82.2,0.0,27.14,West,274,0.0,0.0,0,0.00,,---,0.08,VWS V13.01,2013-07-12 04:51:00,
2013-07-11 21:56:00,82.0,0.0,27.14,West,272,0.0,0.0,0,0.00,,---,0.08,VWS V13.01,2013-07-12 04:56:00,
2013-07-11 22:01:00,82.0,0.0,27.14,West,272,0.0,0.0,0,0.00,,---,0.08,VWS V13.01,2013-07-12 05:01:00,
2013-07-11 22:06:00,82.0,0.0,27.14,South,182,0.0,0.0,0,0.00,,---,0.08,VWS V13.01,2013-07-12 05:06:00,
2013-07-11 22:11:00,82.0,0.0,27.14,South,182,0.0,0.0,0,0.00,,---,0.08,VWS V13.01,2013-07-12 05:11:00,
2013-07-11 22:17:00,81.9,0.0,27.14,South,182,0.0,0.0,0,0.00,,---,0.08,VWS V13.01,2013-07-12 05:17:00,
2013-07-11 22:22:00,81.7,0.0,27.14,South,182,0.0,0.0,0,0.00,,---,0.08,VWS V13.01,2013-07-12 05:22:00,
2013-07-11 22:27:00,81.5,0.0,27.14,South,182,0.0,0.0,0,0.00,,---,0.08,VWS V13.01,2013-07-12 05:27:00,
2013-07-11 22:33:00,81.5,0.0,27.14,South,182,0.0,0.0,0,0.00,,---,0.08,VWS V13.01,2013-07-12 05:33:00,
2013-07-11 22:38:00,81.3,0.0,27.14,South,182,0.0,0.0,0,0.00,,---,0.08,VWS V13.01,2013-07-12 05:38:00,
2013-07-11 22:43:00,81.1,0.0,27.14,South,182,0.0,0.0,0,0.00,,---,0.08,VWS V13.01,2013-07-12 05:43:00,
2013-07-11 22:49:00,81.0,0.0,27.14,South,182,0.0,0.0,0,0.00,,---,0.08,VWS V13.01,2013-07-12 05:49:00,
2013-07-11 22:54:00,80.8,0.0,27.14,South,182,0.0,0.0,0,0.00,,---,0.08,VWS V13.01,2013-07-12 05:54:00,
2013-07-11 23:00:00,80.6,0.0,27.14,South,182,0.0,0.0,0,0.00,,---,0.08,VWS V13.01,2013-07-12 06:00:00,
2013-07-11 23:05:00,80.4,0.0,27.14,South,182,0.0,0.0,0,0.00,,---,0.08,VWS V13.01,2013-07-12 06:05:00,
2013-07-11 23:10:00,80.2,0.0,27.14,South,182,0.0,0.0,0,0.00,,---,0.08,VWS V13.01,2013-07-12 06:10:00,
2013-07-11 23:16:00,80.2,0.0,27.14,South,182,0.0,0.0,0,0.00,,---,0.08,VWS V13.01,2013-07-12 06:16:00,
2013-07-11 23:21:00,80.1,0.0,27.14,South,182,0.0,0.0,0,0.00,,---,0.08,VWS V13.01,2013-07-12 06:21:00,
2013-07-11 23:26:00,80.1,0.0,27.14,ESE,121,0.0,0.0,0,0.00,,---,0.08,VWS V13.01,2013-07-12 06:26:00,
2013-07-11 23:32:00,79.9,0.0,27.14,ESE,121,0.0,0.0,0,0.00,,---,0.08,VWS V13.01,2013-07-12 06:32:00,
2013-07-11 23:37:00,79.9,0.0,27.14,ESE,121,0.0,0.0,0,0.00,,---,0.08,VWS V13.01,2013-07-12 06:37:00,
2013-07-11 23:42:00,79.7,0.0,27.14,ESE,121,0.0,0.0,0,0.00,,---,0.08,VWS V13.01,2013-07-12 06:42:00,
2013-07-11 23:47:00,79.5,0.0,27.14,ESE,121,0.0,0.0,0,0.00,,---,0.08,VWS V13.01,2013-07-12 06:47:00,
2013-07-11 23:52:00,79.3,0.0,27.14,ESE,121,0.0,0.0,0,0.00,,---,0.08,VWS V13.01,2013-07-12 06:52:00,
2013-07-11 23:57:00,79.3,0.0,27.14,ESE,121,0.0,0.0,0,0.00,,---,0.08,VWS V13.01,2013-07-12 06:57:00,